Weather Roundup
Issued by NWS

Home | Current Version | Previous Version | Text Only | Print | Product List | Glossary On
Versions: 1 2 3 4 5 6 7 8 9 10 11 12 13 14 15 16 17 18 19 20 21 22 23 24 25 26 27 28 29 30 31 32 33 34 35 36 37 38 39 40 41 42 43 44 45 46 47 48 49 50
000
NZUS93 KARX 021810
HRRWXR

CURRENT HOURLY OBSERVATIONS ACROSS
MUCH OF THE UPPER MISSISSIPPI VALLEY
NATIONAL WEATHER SERVICE LA CROSSE WI
100 PM CDT WED SEP 02 2015


...SOUTHEAST MINNESOTA...


CITY           SKY/WX    TMP DP  RH WIND       PRES   REMARKS
ROCHESTER      PTSUNNY   80  69  69 S16       29.94F
ROCHESTER/MAYO MOCLDY    81  67  63 S8G16     29.93F
WINONA         CLOUDY    81  66  61 S3        29.93F
AUSTIN         FAIR      82  70  65 SW17      29.92F
ALBERT LEA     FAIR      82  70  65 S14G20    29.90F
DODGE CENTER   PTSUNNY   79  70  73 S13       29.92F
PRESTON        FAIR      79  67  66 S16       29.95F
OWATONNA       FAIR      81  68  65 S10       29.90F
FARIBAULT      CLOUDY    82  70  65 S10       29.90S
$$

...ELSEWHERE IN MINNESOTA...


CITY           SKY/WX    TMP DP  RH WIND       PRES   REMARKS
MINNEAPOLIS    CLOUDY    76  67  73 E9        29.90F
INTNL FALLS    PTSUNNY   78  65  63 VRB5      29.93F
DULUTH         PTSUNNY   67  64  90 SE16      29.94F
RED WING       PTSUNNY   79  70  73 SE13      29.90S
REDWOOD FALLS  FAIR      83  72  69 S8        29.85F
MANKATO        PTSUNNY   82  72  69 S9        29.87F
WORTHINGTON    FAIR      81  70  69 S15G21    29.88S
FAIRMONT       FAIR      82  66  57 SW12G17   29.88S
$$

...SOUTHWEST WISCONSIN...


CITY           SKY/WX    TMP DP  RH WIND       PRES   REMARKS
LA CROSSE      FAIR      85  68  56 S10       29.93F
PRAIRIE DU CHI FAIR      83  65  55 S7        29.96F
BOSCOBEL       FAIR      86  69  56 S7        29.97F HX  90
LONE ROCK      FAIR      82  67  60 SW12      29.99S
PLATTEVILLE    FAIR      79  71  76 S8        30.00F
FORT MC COY    FAIR      84  63  49 S5        29.96F
CAMP DOUGLAS   MOSUNNY   84  75  74 S6        29.96F HX  92
VIROQUA          N/A     82  67  60 S9        29.98F
WIS DELLS      FAIR      83  66  56 SW13      29.98F
$$

...ELSEWHERE IN WISCONSIN...


CITY           SKY/WX    TMP DP  RH WIND       PRES   REMARKS
MILWAUKEE      PTSUNNY   88  68  51 SW8       30.00S HX  91
MADISON        PTSUNNY   84  66  54 SW8       30.00S
GREEN BAY      PTSUNNY   86  72  62 SW9       29.97S HX  92
EAU CLAIRE     CLOUDY    71  68  90 NE8       29.96R
BLACK RVR FLS  MOCLDY    84  68  59 CALM      29.94F
MEDFORD        RAIN      69  68  98 NE7       30.01F
WAUSAU         MOSUNNY   80  69  69 E5        29.97F
WIS RAPIDS     FAIR      85  66  53 SW12      29.98F
MARSHFIELD     CLOUDY    82  68  62 E3        29.98F
RICE LAKE      TSTM      67  65  93 E7        30.00S
$$

...NORTHEAST IOWA...


CITY           SKY/WX    TMP DP  RH WIND       PRES   REMARKS
DECORAH        PTSUNNY   81  70  69 S12       29.96F
MASON CITY     FAIR      83  71  67 SW18G26   29.93F
CHARLES CITY   FAIR      82  73  74 S13G20    29.95F
OELWEIN        FAIR      81  72  74 S14       29.98F
$$

...ELSEWHERE IN IOWA...


CITY           SKY/WX    TMP DP  RH WIND       PRES   REMARKS
DES MOINES     FAIR      85  69  58 SW17G26   29.93F
IOWA CITY      FAIR      79  70  74 S7        30.00F
FORT DODGE     FAIR      84  70  61 S17G25    29.92F
$$

...NORTHERN ILLINOIS...


CITY           SKY/WX    TMP DP  RH WIND       PRES   REMARKS
CHICAGO-OHARE  MOSUNNY   87  69  54 SW13      30.01F HX  91
CHICAGO-MIDWAY MOSUNNY   90  70  51 W12G18    30.01F HX  95
MOLINE         FAIR      85  69  58 SW10      30.01F
ROCKFORD       PTSUNNY   87  70  56 SW12      30.03S HX  92
PEORIA         FAIR      91  70  49 SW12G18   30.03F HX  96
$$

NOTE: "FAIR" INDICATES FEW OR NO CLOUDS BELOW 12,000 FEET WITH NO
SIGNIFICANT WEATHER AND/OR OBSTRUCTIONS TO VISIBILITY. WIND
SPEEDS ARE IN MILES-PER-HOUR.



USA.gov is the U.S. government's official web portal to all federal, state and local government web resources and services.